Regional Weather Roundup
Issued by NWS

Home | Current Version | Previous Version | Graphics & Text | Print | Product List | Glossary On
Versions: 1 2 3 4 5 6 7 8 9 10 11 12 13 14 15 16 17 18 19 20 21 22 23 24 25 26 27 28 29 30 31 32 33 34 35 36 37 38 39 40 41 42 43 44 45 46 47 48 49 50
000
ASUS45 KBOI 051210
RWRID

IDAHO REGIONAL WEATHER ROUNDUP
NATIONAL WEATHER SERVICE BOISE ID
500 AM MST MON DEC 05 2016

NOTE: "FAIR" INDICATES FEW OR NO CLOUDS BELOW 12000 FEET
WITH NO SIGNIFICANT WEATHER AND/OR OBSTRUCTIONS TO VISIBILITY

IDZ012-014-051300-
SOUTHWEST IDAHO


CITY           SKY/WX    TMP DP  RH WIND       PRES   REMARKS
BOISE          PTCLDY    24  16  71 NW5       30.09S WCI  18
CALDWELL       CLEAR     24  16  71 W7        30.12R WCI  16
MOUNTAIN HOME  CLEAR     22  18  84 W6        30.09R WCI  15
$$

IDZ016-017-051300-
SOUTHCENTRAL IDAHO


CITY           SKY/WX    TMP DP  RH WIND       PRES   REMARKS
BURLEY         CLEAR     21  15  78 W17G26    29.97R WCI   7
JEROME         CLEAR     20  17  88 SW15      30.01R WCI   6
TWIN FALLS     CLEAR     19  13  77 W21       30.01R WCI   3
$$

IDZ019>023-051300-
SOUTHEAST IDAHO


CITY           SKY/WX    TMP DP  RH WIND       PRES   REMARKS
IDAHO FALLS    CLOUDY    25  11  55 N5        29.87R WCI  19
POCATELLO      PTCLDY    21  17  84 SW20G29   29.93R WCI   6
REXBURG        CLOUDY    22   9  57 SW5       29.84R WCI  16
$$

IDZ006-010-011-018-031-032-051300-
CENTRAL IDAHO MOUNTAINS


CITY           SKY/WX    TMP DP  RH WIND       PRES   REMARKS
MCCALL         CLOUDY     9   5  84 NE5       29.94S WCI   1
HAILEY         CLEAR     14   1  57 CALM      29.91R
STANLEY          N/A     -3  -6  87 S3        29.88R
SALMON         CLOUDY    18   9  68 CALM      29.93R
CHALLIS        CLEAR     19   2  47 W10       29.89R WCI   7
$$

IDZ002-004-006-007-026-051300-
NORTHERN IDAHO


CITY           SKY/WX    TMP DP  RH WIND       PRES   REMARKS
LEWISTON       CLEAR     30  18  60 S10       30.09S WCI  21
LOWELL           N/A     28  26  92 CALM      30.12S
COEUR D`ALENE  CLEAR     22  16  78 W7        30.02R WCI  13
MULLAN PASS    MOCLDY     9   5  84 NW8G17    29.78R WCI  -3
$$



USA.gov is the U.S. government's official web portal to all federal, state and local government web resources and services.